CW0451 Weather Reports


Display with metric or nautical units.
time (UTC)temp
F
wind
direction
speed
MPH
gust
MPH
rain 1hr
in
rain 24hr
in
rain mn
in
humidity
%
barometer
mb
20260901030103 66 186 2.0 3.0 0.00 0.03 0.01 84 1017.7
20260901025103 66 199 3.0 5.0 0.00 0.03 0.01 83 1017.7
20260901024103 66 189 3.0 6.0 0.00 0.03 0.01 83 1017.7
20260901023103 66 184 4.0 7.0 0.00 0.03 0.01 83 1017.8
20260901022103 66 149 2.0 4.0 0.00 0.04 0.01 84 1017.8
20260901021104 66 173 2.0 5.0 0.00 0.05 0.01 81 1018.1
20260901015125 67 208 3.0 5.0 0.00 0.05 0.01 81 1018.2
20260901014103 67 191 4.0 6.0 0.00 0.05 0.01 82 1018.0
20260901013104 67 192 2.0 5.0 0.00 0.05 0.01 82 1018.0
20260901012103 67 190 3.0 7.0 0.00 0.05 0.01 82 1017.9
20260901011104 67 203 3.0 5.0 0.00 0.05 0.01 83 1018.0
20260901005104 67 213 3.0 6.0 0.00 0.05 0.01 83 1018.0
20260901004103 67 208 2.0 6.0 0.00 0.05 0.01 82 1018.0
20260901003103 67 188 3.0 7.0 0.00 0.05 0.01 82 1017.8
20260901002104 68 204 3.0 9.0 0.00 0.05 0.01 82 1018.0
20260901001103 68 205 3.0 8.0 0.00 0.05 0.01 82 1018.0
20260901000104 68 210 6.0 9.0 0.00 0.05 0.01 82 1018.0
20260831235103 68 221 4.0 10.0 0.00 0.05 0.01 83 1018.1
20260831234104 69 224 4.0 9.0 0.00 0.05 0.01 83 1018.0
20260831233103 69 228 4.0 7.0 0.00 0.05 0.01 83 1018.0
20260831232103 69 213 2.0 6.0 0.00 0.05 0.01 82 1018.0
20260831231125 69 188 3.0 5.0 0.00 0.05 0.01 81 1017.8
20260831225104 70 204 4.0 8.0 0.00 0.05 0.01 79 1017.9
20260831224103 70 194 4.0 9.0 0.00 0.05 0.01 79 1018.0
20260831223104 71 238 6.0 11.0 0.00 0.05 0.01 77 1018.0
20260831222103 72 214 5.0 9.0 0.00 0.05 0.01 76 1018.0
20260831221104 72 224 5.0 10.0 0.00 0.05 0.01 75 1018.0
20260831220103 72 228 6.0 11.0 0.00 0.05 0.01 74 1018.0
20260831215125 73 198 5.0 10.0 0.00 0.05 0.01 71 1017.9
20260831214103 73 188 4.0 11.0 0.00 0.05 0.01 69 1018.0
20260831213103 74 193 6.0 10.0 0.00 0.05 0.01 68 1018.0
20260831212103 74 211 5.0 10.0 0.00 0.05 0.01 69 1017.8
20260831211103 75 201 5.0 10.0 0.00 0.05 0.01 69 1017.9
20260831210103 76 194 5.0 8.0 0.00 0.05 0.01 66 1017.9
20260831205103 76 189 5.0 10.0 0.00 0.05 0.01 64 1017.8
20260831204103 76 204 5.0 11.0 0.00 0.05 0.01 64 1017.8
20260831203103 77 189 6.0 9.0 0.00 0.05 0.01 60 1017.6
20260831202103 77 165 5.0 10.0 0.00 0.05 0.01 61 1017.6
20260831201103 77 189 4.0 6.0 0.00 0.05 0.01 59 1017.8
20260831195103 76 157 5.0 10.0 0.00 0.05 0.01 60 1017.8
20260831194103 77 176 6.0 9.0 0.00 0.05 0.01 59 1018.0
20260831193124 76 209 4.0 7.0 0.00 0.05 0.01 61 1018.2
20260831192103 76 143 4.0 8.0 0.00 0.05 0.01 60 1018.1
20260831191103 77 126 2.0 4.0 0.00 0.05 0.01 61 1018.0
20260831185103 78 151 4.0 6.0 0.00 0.05 0.01 54 1018.4
20260831184104 77 216 2.0 5.0 0.00 0.05 0.01 59 1018.5
20260831183103 77 349 1.0 4.0 0.00 0.05 0.01 57 1018.7
20260831182104 76 322 2.0 3.0 0.00 0.05 0.01 57 1018.5
20260831181103 76 251 1.0 5.0 0.00 0.05 0.01 55 1018.6
20260831180104 75 156 2.0 5.0 0.00 0.05 0.01 57 1018.7
20260831175103 75 94 4.0 7.0 0.00 0.05 0.01 58 1019.0
20260831174103 76 177 1.0 4.0 0.00 0.05 0.01 60 1019.0
20260831173103 76 17 3.0 8.0 0.00 0.05 0.01 57 1018.9
20260831172103 76 344 2.0 11.0 0.00 0.05 0.01 60 1018.8
20260831171104 76 139 2.0 7.0 0.00 0.05 0.01 57 1019.0
20260831165103 76 164 2.0 5.0 0.00 0.05 0.01 61 1019.2
20260831164103 76 36 2.0 6.0 0.00 0.05 0.01 58 1019.3
20260831163125 75 92 4.0 9.0 0.00 0.05 0.01 61 1019.4
20260831162124 76 136 3.0 10.0 0.00 0.05 0.01 62 1019.3
20260831161124 75 167 4.0 13.0 0.00 0.05 0.01 59 1019.4
20260831155103 75 5 6.0 9.0 0.00 0.05 0.01 60 1019.6
20260831154103 75 143 4.0 8.0 0.00 0.05 0.01 64 1019.5
20260831153124 73 198 3.0 10.0 0.00 0.05 0.01 63 1019.8
20260831152103 73 52 2.0 5.0 0.00 0.05 0.01 63 1019.8
20260831151103 74 46 4.0 10.0 0.00 0.05 0.01 59 1019.9
20260831150125 73 99 5.0 8.0 0.00 0.05 0.01 65 1019.7
20260831145104 72 134 3.0 9.0 0.00 0.05 0.01 67 1019.7
20260831144103 72 35 3.0 10.0 0.00 0.05 0.01 68 1019.6
20260831143104 72 68 1.0 8.0 0.00 0.05 0.01 72 1019.7
20260831142103 72 114 3.0 9.0 0.00 0.05 0.01 69 1019.8
20260831141103 71 100 3.0 9.0 0.00 0.05 0.01 70 1019.7
20260831140124 70 77 4.0 10.0 0.00 0.05 0.01 72 1019.6
20260831135104 70 31 4.0 9.0 0.00 0.05 0.01 72 1019.5
20260831134103 70 31 4.0 10.0 0.00 0.05 0.01 74 1019.4
20260831133125 70 93 5.0 12.0 0.00 0.05 0.01 74 1019.3
20260831132125 69 43 2.0 13.0 0.00 0.05 0.01 76 1019.3
20260831131104 69 33 3.0 9.0 0.00 0.05 0.01 82 1019.5
20260831130104 68 76 5.0 9.0 0.00 0.05 0.01 81 1019.5
20260831125125 68 52 5.0 12.0 0.00 0.05 0.01 79 1019.5
20260831124103 67 71 5.0 10.0 0.00 0.05 0.01 85 1019.5
20260831123104 66 76 6.0 11.0 0.00 0.05 0.01 88 1019.4
20260831122103 66 81 2.0 8.0 0.00 0.05 0.01 89 1019.3
20260831121104 66 74 1.0 7.0 0.00 0.05 0.01 91 1019.1
20260831120103 66 87 2.0 8.0 0.00 0.05 0.01 93 1019.1
20260831115104 66 67 1.0 3.0 0.00 0.05 0.01 95 1019.0
20260831114103 64 56 1.0 3.0 0.00 0.05 0.01 96 1019.0
20260831113104 64 5 0.0 1.0 0.00 0.05 0.01 97 1018.9
20260831112125 63 5 0.0 1.0 0.00 0.05 0.01 97 1018.8
20260831111124 62 5 0.0 2.0 0.00 0.05 0.01 97 1018.7
20260831110104 61 5 1.0 2.0 0.00 0.05 0.01 96 1018.6
20260831105103 61 5 0.0 3.0 0.00 0.05 0.01 96 1018.5
20260831104104 61 5 0.0 2.0 0.00 0.05 0.01 95 1018.4
20260831103104 62 5 1.0 3.0 0.00 0.05 0.01 95 1018.4
20260831102103 62 357 3.0 4.0 0.00 0.05 0.01 96 1018.3
20260831101104 62 14 2.0 5.0 0.00 0.05 0.01 96 1018.0
20260831100103 61 6 3.0 5.0 0.00 0.05 0.01 96 1017.8
20260831095104 61 358 2.0 5.0 0.00 0.05 0.01 96 1017.8
20260831094103 61 29 2.0 3.0 0.00 0.05 0.01 96 1017.7
20260831093103 61 12 1.0 3.0 0.00 0.05 0.01 95 1017.6
20260831092103 61 359 3.0 4.0 0.00 0.05 0.01 95 1017.5
20260831091103 62 11 2.0 6.0 0.00 0.05 0.01 95 1017.5
20260831085124 62 346 3.0 5.0 0.00 0.05 0.01 95 1017.4
20260831084103 62 351 4.0 6.0 0.00 0.05 0.01 95 1017.4
20260831083103 62 354 3.0 4.0 0.00 0.05 0.01 95 1017.3
20260831082104 62 326 1.0 3.0 0.00 0.05 0.01 95 1017.3
20260831081103 62 326 2.0 2.0 0.00 0.05 0.01 95 1017.1
20260831080104 63 326 0.0 1.0 0.00 0.05 0.01 94 1017.0
20260831075104 63 327 0.0 2.0 0.00 0.05 0.01 94 1017.0
20260831073103 64 326 2.0 3.0 0.00 0.05 0.01 95 1016.8
20260831072103 64 326 2.0 3.0 0.00 0.05 0.01 94 1016.8
20260831071103 64 326 1.0 3.0 0.00 0.05 0.01 95 1016.7
20260831070104 64 324 1.0 3.0 0.00 0.05 0.01 94 1016.8
20260831065103 65 322 1.0 3.0 0.00 0.05 0.01 94 1016.7
20260831064104 65 329 1.0 3.0 0.00 0.05 0.01 94 1016.6
20260831063103 66 325 2.0 4.0 0.00 0.05 0.01 94 1016.6
20260831062103 66 325 2.0 4.0 0.00 0.05 0.01 94 1016.5
20260831061125 66 303 1.0 3.0 0.00 0.05 0.01 94 1016.5
20260831060125 67 332 1.0 3.0 0.00 0.05 0.01 94 1016.4
20260831055103 67 332 2.0 4.0 0.01 0.05 0.01 93 1016.4
20260831054104 67 348 1.0 2.0 0.01 0.05 0.01 94 1016.3
20260831053124 68 349 0.0 0.0 0.01 0.05 0.01 93 1016.2
20260831052124 68 349 0.0 1.0 0.01 0.05 0.01 93 1016.1
20260831051125 68 348 0.0 1.0 0.00 0.04 0.00 93 1016.2
20260831050103 69 349 0.0 2.0 0.00 0.04 0.00 93 1016.2
20260831045124 69 348 0.0 3.0 0.00 0.04 0.00 93 1016.1
20260831044103 69 348 2.0 3.0 0.00 0.04 0.00 93 1016.1
20260831043124 69 305 1.0 3.0 0.00 0.04 0.00 93 1016.2
20260831042104 69 310 1.0 3.0 0.00 0.04 0.00 93 1016.3
20260831041103 69 236 3.0 5.0 0.00 0.04 0.00 93 1016.1
20260831040104 69 231 2.0 7.0 0.00 0.08 0.04 93 1016.1
20260831035125 70 251 5.0 11.0 0.02 0.04 0.04 93 1016.1
20260831034103 70 238 2.0 7.0 0.02 0.04 0.04 93 1016.3
20260831033125 70 286 1.0 5.0 0.02 0.04 0.04 93 1016.2
20260831032124 70 273 2.0 7.0 0.01 0.03 0.03 93 1016.4
20260831031103 70 276 1.0 7.0 0.00 0.02 0.02 92 1016.5